Location: Bu�n Treun
(12.1333°N, 108.3167°E)
Time: 12:14:00
(UTC+00:00)

N. Korean satellite - Visible Passes

Search period start: 18 June 2021 00:00
Search period end: 28 June 2021 00:00
Orbit: 450 x 500 km, 97.2° (Epoch: 17 June)

Date Brightness Start Highest point End Pass type
(mag) Time Alt. Az. Time Alt. Az. Time Alt. Az.
18 Jun 9.0 21:16:41 10° NE 21:19:36 23° E 21:22:32 10° SSE visible
20 Jun 6.6 21:54:35 10° N 21:58:13 77° W 22:01:53 10° SSW visible
21 Jun 8.2 21:27:38 10° NNE 21:30:59 34° E 21:34:21 10° SSE visible
22 Jun 9.6 21:01:57 10° ENE 21:03:44 13° E 21:05:30 10° SE visible
24 Jun 7.3 21:38:44 10° NNE 21:42:19 55° E 21:45:55 10° S visible
25 Jun 9.2 21:12:20 10° NE 21:15:03 20° E 21:17:46 10° SSE visible
27 Jun 6.6 21:49:56 10° NNE 21:53:36 88° ESE 21:57:15 10° S visible
